DELTA 2 R/B - Orbit

View from above orbital plane
View from above orbital plane
View from above satellite
View from above satellite

Ground track
Ground track

The orbit data is extracted from the following two-line orbital elements,

1 27644U 03002C   13140.55003657  .00054706  00000-0  14081-2 0   672
2 27644 093.9735 351.2880 0008760 123.5079 291.6475 15.39010077569812
Epoch (UTC): 20 May 2013 13:12:03
Eccentricity: 0.0008760
inclination: 93.9735°
perigee height: 443 km
apogee height: 455 km
right ascension of ascending node: 351.2880°
argument of perigee: 123.5079°
revolutions per day: 15.39010077
mean anomaly at epoch: 291.6475°
orbit number at epoch: 56981

The dashed part of the orbit path shows where the satellite is in the earth's shadow,  

Developed and maintained by Chris Peat, Heavens-Above GmbH. Please read the updated FAQ before sending e-mail. Imprint. DLR